DW5683 Weather Reports


time (UTC)temp
F
wind
direction
speed
knots
gust
knots
rain 1hr
in
rain 24hr
in
rain mn
in
humidity
%
barometer
mb
20260508191537 76 212 0.0 2.6 0.00 0.00 0.00 61 1016.4
20260508190036 76 212 0.0 3.5 0.00 0.00 0.00 61 1016.5
20260508184534 75 211 0.9 4.3 0.00 0.00 0.00 63 1016.6
20260508183032 74 209 0.0 2.6 0.00 0.00 0.00 65 1016.6
20260508181542 73 0 0.0 3.5 0.00 0.00 0.00 66 1016.7
20260508180040 72 206 0.9 2.6 0.00 0.00 0.00 68 1016.8
20260508174538 71 207 0.0 2.6 0.00 0.00 0.00 70 1016.7
20260508173038 69 0 0.0 2.6 0.00 0.00 0.00 71 1016.8
20260508171543 68 0 0.0 3.5 0.00 0.00 0.00 71 1016.9
20260508170041 69 208 0.0 1.7 0.00 0.00 0.00 70 1016.9
20260508164537 68 0 0.0 4.3 0.00 0.00 0.00 73 1016.8
20260508163045 66 207 0.0 2.6 0.00 0.00 0.00 75 1016.8
20260508161536 64 0 0.0 2.6 0.00 0.00 0.00 79 1017.0
20260508160057 62 208 0.0 2.6 0.00 0.00 0.00 82 1017.0
20260508154538 61 0 0.0 2.6 0.00 0.00 0.00 86 1017.1
20260508153045 58 0 0.0 2.6 0.00 0.00 0.00 89 1017.3
20260508151541 57 209 0.9 3.5 0.00 0.00 0.00 88 1017.2
20260508150038 57 214 0.0 2.6 0.00 0.00 0.00 91 1017.1
20260508144536 55 214 0.0 4.3 0.00 0.00 0.00 92 1016.8
20260508143043 55 0 0.0 2.6 0.00 0.00 0.00 92 1016.8
20260508141547 54 0 0.0 1.7 0.00 0.00 0.00 92 1016.5
20260508140043 53 0 0.0 3.5 0.00 0.00 0.00 92 1016.3
20260508134538 53 0 0.0 1.7 0.00 0.00 0.00 92 1016.1
20260508133047 53 0 0.0 0.0 0.00 0.00 0.00 92 1016.1
20260508131539 53 0 0.0 0.0 0.00 0.00 0.00 92 1016.1
20260508130036 53 0 0.0 0.0 0.00 0.00 0.00 91 1016.0
20260508124541 53 0 0.0 0.0 0.00 0.00 0.00 92 1015.7
20260508123038 53 0 0.0 0.0 0.00 0.00 0.00 91 1015.7
20260508121555 53 0 0.0 0.0 0.00 0.00 0.00 91 1015.6
20260508120038 53 0 0.0 0.0 0.00 0.00 0.00 91 1015.7
20260508114537 54 0 0.0 0.0 0.00 0.00 0.00 91 1015.6
20260508113036 54 0 0.0 0.0 0.00 0.00 0.00 91 1015.6
20260508111538 54 0 0.0 0.0 0.00 0.00 0.00 90 1015.7
20260508110048 55 0 0.0 0.0 0.00 0.00 0.00 91 1015.5
20260508104538 55 0 0.0 0.0 0.00 0.00 0.00 90 1015.5
20260508103040 55 0 0.0 0.0 0.00 0.00 0.00 90 1015.6
20260508101537 56 0 0.0 0.0 0.00 0.00 0.00 90 1015.6
20260508100034 56 0 0.0 0.0 0.00 0.00 0.00 89 1015.7
20260508094537 56 0 0.0 0.0 0.00 0.00 0.00 89 1015.7
20260508093038 57 0 0.0 0.0 0.00 0.00 0.00 88 1015.5
20260508091539 57 0 0.0 0.9 0.00 0.00 0.00 88 1015.7
20260508090038 58 0 0.0 2.6 0.00 0.00 0.00 88 1015.5
20260508084536 58 0 0.0 0.0 0.00 0.00 0.00 88 1015.4
20260508083117 59 0 0.0 0.0 0.00 0.00 0.00 88 1015.5
20260508081541 60 0 0.0 0.0 0.00 0.00 0.00 88 1015.6
20260508080041 60 0 0.0 0.0 0.00 0.00 0.00 87 1015.4
20260508074538 61 0 0.0 0.0 0.00 0.00 0.00 87 1015.2
20260508073037 61 0 0.0 0.0 0.00 0.00 0.00 86 1015.2
20260508071538 62 0 0.0 0.0 0.00 0.00 0.00 86 1015.2
20260508070035 63 0 0.0 0.0 0.00 0.00 0.00 85 1015.1
20260508064601 64 0 0.0 0.0 0.00 0.00 0.00 85 1015.1
20260508063040 64 0 0.0 0.0 0.00 0.00 0.00 85 1015.1
20260508061542 65 0 0.0 0.0 0.00 0.00 0.00 83 1015.2
20260508060037 65 0 0.0 0.9 0.00 0.00 0.00 85 1015.1
20260508054539 65 0 0.0 0.0 0.00 0.00 0.00 85 1015.1
20260508053035 66 0 0.0 0.0 0.00 0.00 0.00 84 1015.0
20260508051536 66 0 0.0 0.0 0.00 0.00 0.00 83 1014.9
20260508050044 67 0 0.0 0.0 0.00 0.00 0.00 81 1015.0
20260508044537 69 0 0.0 0.0 0.00 0.00 0.00 78 1014.8
20260508043037 70 0 0.0 0.0 0.00 0.00 0.00 77 1014.8
20260508041536 70 0 0.0 0.0 0.00 0.00 0.00 76 1014.6
20260508040037 70 0 0.0 0.0 0.00 0.00 0.00 76 1014.3
20260508034538 72 0 0.0 0.0 0.00 0.00 0.00 75 1014.2
20260508033042 74 0 0.0 0.0 0.00 0.00 0.00 72 1014.1
20260508031537 76 0 0.0 0.0 0.00 0.00 0.00 70 1013.9
20260508030037 78 0 0.0 0.0 0.00 0.00 0.00 65 1013.8
20260508024541 80 0 0.0 0.0 0.00 0.00 0.00 62 1013.7
20260508023037 80 0 0.0 0.0 0.00 0.00 0.00 57 1013.6
20260508021537 81 0 0.0 0.0 0.00 0.00 0.00 55 1013.6
20260508020041 82 0 0.0 1.7 0.00 0.00 0.00 53 1013.7
20260508014538 82 0 0.0 2.6 0.00 0.00 0.00 55 1013.7
20260508013037 81 223 0.0 5.2 0.00 0.00 0.00 55 1013.7
20260508011548 82 0 0.0 2.6 0.00 0.00 0.00 55 1013.7
20260508010044 82 0 0.0 2.6 0.00 0.00 0.00 54 1013.8
20260508004553 82 0 1.7 3.5 0.00 0.00 0.00 54 1013.9
20260508003042 83 0 0.0 5.2 0.00 0.00 0.00 54 1014.1
20260508001541 83 0 1.7 6.1 0.00 0.00 0.00 55 1014.1
20260508000038 82 0 0.0 5.2 0.00 0.00 0.00 54 1014.1
20260507234539 83 0 0.0 3.5 0.00 0.00 0.00 52 1014.0
20260507233038 83 225 0.9 4.3 0.00 0.00 0.00 53 1014.2
20260507231540 83 0 0.0 3.5 0.00 0.00 0.00 56 1014.4
20260507230038 83 0 0.0 3.5 0.00 0.00 0.00 53 1014.5
20260507224539 82 225 1.7 4.3 0.00 0.00 0.00 54 1014.6
20260507223034 81 0 0.0 2.6 0.00 0.00 0.00 55 1015.0
20260507221539 82 225 0.0 5.2 0.00 0.00 0.00 56 1015.3
20260507220039 82 225 0.9 4.3 0.00 0.00 0.00 55 1015.3
20260507214537 82 227 0.9 5.2 0.00 0.00 0.00 57 1015.5
20260507213037 81 225 1.7 5.2 0.00 0.00 0.00 57 1015.8
20260507211535 80 0 0.0 3.5 0.00 0.00 0.00 57 1016.0
20260507210039 80 220 0.9 2.6 0.00 0.00 0.00 59 1016.1
20260507204555 80 0 0.0 3.5 0.00 0.00 0.00 58 1016.4
20260507203036 79 219 0.9 4.3 0.00 0.00 0.00 59 1016.7
20260507201540 78 222 0.9 4.3 0.00 0.00 0.00 59 1017.0
20260507200040 78 0 0.9 5.2 0.00 0.00 0.00 61 1017.0
20260507194543 78 217 0.9 3.5 0.00 0.00 0.00 61 1017.2
20260507193034 78 217 0.0 4.3 0.00 0.00 0.00 59 1017.3